TimeCDT,TemperatureF,Dew PointF,Humidity,Sea Level PressureIn,VisibilityMPH,Wind Direction,Wind SpeedMPH,Gust SpeedMPH,PrecipitationIn,Events,Conditions,WindDirDegrees,DateUTC
12:15 AM,59.2,54.5,84,30.02,10.0,East,3.5,-,N/A,,Clear,90,2013-07-25 05:15:00
12:35 AM,58.1,54.0,86,30.01,10.0,Calm,Calm,-,N/A,,Clear,0,2013-07-25 05:35:00
12:55 AM,57.9,54.7,89,30.00,10.0,East,3.5,-,N/A,,Clear,80,2013-07-25 05:55:00
1:15 AM,58.6,54.5,86,30.00,10.0,ESE,3.5,-,N/A,,Clear,120,2013-07-25 06:15:00
1:35 AM,58.1,54.7,88,30.00,10.0,ENE,3.5,-,N/A,,Clear,60,2013-07-25 06:35:00
1:55 AM,58.1,54.1,87,29.99,10.0,East,4.6,-,N/A,,Clear,90,2013-07-25 06:55:00
2:15 AM,56.3,53.8,91,29.99,10.0,Calm,Calm,-,N/A,,Clear,0,2013-07-25 07:15:00
2:35 AM,55.9,53.6,92,29.99,10.0,Calm,Calm,-,N/A,,Clear,0,2013-07-25 07:35:00
2:55 AM,57.2,54.0,89,29.99,10.0,East,3.5,-,N/A,,Scattered Clouds,90,2013-07-25 07:55:00
3:15 AM,56.1,53.2,90,29.99,10.0,East,4.6,-,N/A,,Scattered Clouds,80,2013-07-25 08:15:00
3:35 AM,56.3,53.6,91,29.98,10.0,East,3.5,-,N/A,,Scattered Clouds,90,2013-07-25 08:35:00
3:55 AM,56.3,53.6,91,29.98,10.0,East,3.5,-,N/A,,Mostly Cloudy,80,2013-07-25 08:55:00
4:15 AM,57.4,54.1,89,29.98,10.0,East,3.5,-,N/A,,Overcast,100,2013-07-25 09:15:00
4:35 AM,58.1,54.5,88,29.98,10.0,East,3.5,-,N/A,,Overcast,100,2013-07-25 09:35:00
4:55 AM,58.3,55.0,89,29.99,10.0,East,3.5,-,N/A,,Overcast,90,2013-07-25 09:55:00
5:15 AM,59.2,55.8,88,30.00,10.0,WSW,3.5,-,N/A,Rain,Light Rain,250,2013-07-25 10:15:00
6:35 AM,61.3,58.3,90,29.98,10.0,South,5.8,-,N/A,,Mostly Cloudy,170,2013-07-25 11:35:00
7:15 AM,63.3,59.2,86,29.98,10.0,South,6.9,-,N/A,,Mostly Cloudy,170,2013-07-25 12:15:00
7:35 AM,64.2,59.5,85,29.97,10.0,SSE,5.8,-,N/A,,Scattered Clouds,150,2013-07-25 12:35:00
7:55 AM,64.8,59.9,84,29.98,10.0,SE,5.8,-,N/A,,Scattered Clouds,140,2013-07-25 12:55:00
8:15 AM,66.0,60.1,81,29.98,10.0,SE,3.5,-,N/A,,Scattered Clouds,140,2013-07-25 13:15:00
8:35 AM,68.0,59.9,75,29.98,10.0,South,8.1,-,N/A,,Scattered Clouds,180,2013-07-25 13:35:00
8:55 AM,68.7,59.9,73,29.99,10.0,SSW,8.1,-,N/A,,Mostly Cloudy,200,2013-07-25 13:55:00
9:15 AM,69.3,60.3,73,29.98,10.0,SW,8.1,-,N/A,,Scattered Clouds,220,2013-07-25 14:15:00
9:35 AM,71.6,60.8,69,29.99,10.0,SW,8.1,-,N/A,,Scattered Clouds,230,2013-07-25 14:35:00
9:55 AM,73.4,61.5,66,29.98,10.0,SW,8.1,-,N/A,,Scattered Clouds,230,2013-07-25 14:55:00
10:15 AM,74.1,61.5,65,29.98,10.0,SSW,8.1,-,N/A,,Clear,210,2013-07-25 15:15:00
10:35 AM,75.2,61.2,62,29.98,10.0,WSW,11.5,-,N/A,,Scattered Clouds,240,2013-07-25 15:35:00
10:55 AM,76.1,61.2,60,29.98,10.0,WSW,8.1,-,N/A,,Clear,250,2013-07-25 15:55:00
11:15 AM,77.0,61.5,59,29.98,10.0,WSW,8.1,-,N/A,,Clear,250,2013-07-25 16:15:00
11:35 AM,77.5,61.2,57,29.98,10.0,South,5.8,-,N/A,,Clear,180,2013-07-25 16:35:00
11:55 AM,78.8,60.8,54,29.98,10.0,WSW,6.9,-,N/A,,Clear,250,2013-07-25 16:55:00
12:15 PM,78.4,60.1,53,29.98,10.0,SSW,4.6,-,N/A,,Clear,210,2013-07-25 17:15:00
12:35 PM,77.4,60.8,57,29.97,10.0,WSW,6.9,-,N/A,,Clear,250,2013-07-25 17:35:00
12:55 PM,77.9,60.1,54,29.97,10.0,WSW,6.9,-,N/A,,Clear,240,2013-07-25 17:55:00
1:15 PM,78.3,60.4,54,29.97,10.0,WSW,6.9,-,N/A,,Clear,250,2013-07-25 18:15:00
1:35 PM,78.4,61.0,55,29.97,10.0,SW,10.4,-,N/A,,Clear,230,2013-07-25 18:35:00
1:55 PM,79.9,61.3,53,29.96,10.0,SW,8.1,-,N/A,,Clear,230,2013-07-25 18:55:00
2:15 PM,80.4,60.1,50,29.95,10.0,WSW,8.1,-,N/A,,Clear,250,2013-07-25 19:15:00
2:35 PM,81.0,60.8,50,29.95,10.0,SW,6.9,-,N/A,,Clear,230,2013-07-25 19:35:00
2:55 PM,80.2,61.7,53,29.94,10.0,SW,10.4,-,N/A,,Clear,230,2013-07-25 19:55:00
3:15 PM,79.2,62.4,56,29.94,10.0,WSW,8.1,-,N/A,,Scattered Clouds,250,2013-07-25 20:15:00
3:35 PM,81.1,61.3,51,29.94,10.0,West,8.1,-,N/A,,Scattered Clouds,270,2013-07-25 20:35:00
3:55 PM,80.6,61.7,52,29.93,10.0,West,9.2,-,N/A,,Clear,260,2013-07-25 20:55:00
4:15 PM,80.2,61.0,52,29.93,10.0,West,9.2,-,N/A,,Scattered Clouds,260,2013-07-25 21:15:00
4:35 PM,79.5,58.8,49,29.94,10.0,West,8.1,-,N/A,,Scattered Clouds,270,2013-07-25 21:35:00
4:55 PM,77.2,60.1,55,29.94,7.0,West,9.2,-,N/A,Rain,Rain,270,2013-07-25 21:55:00
5:15 PM,75.7,63.1,65,29.92,10.0,West,5.8,-,0.01,,Scattered Clouds,260,2013-07-25 22:15:00
5:35 PM,77.2,61.9,59,29.93,10.0,SW,3.5,-,0.01,,Clear,230,2013-07-25 22:35:00
5:55 PM,76.3,61.7,60,29.92,10.0,South,4.6,-,0.01,,Scattered Clouds,190,2013-07-25 22:55:00
6:15 PM,77.0,63.7,63,29.92,10.0,South,9.2,-,N/A,,Scattered Clouds,190,2013-07-25 23:15:00
6:35 PM,76.1,60.6,59,29.92,10.0,SW,8.1,-,N/A,,Scattered Clouds,220,2013-07-25 23:35:00
6:55 PM,75.4,61.3,62,29.92,10.0,SW,4.6,-,N/A,,Mostly Cloudy,220,2013-07-25 23:55:00
7:15 PM,74.7,62.1,65,29.92,10.0,SW,5.8,-,N/A,,Mostly Cloudy,220,2013-07-26 00:15:00
7:35 PM,74.3,62.8,67,29.92,10.0,SSW,5.8,-,N/A,,Overcast,210,2013-07-26 00:35:00
7:55 PM,73.0,63.5,72,29.93,10.0,South,6.9,-,N/A,,Overcast,190,2013-07-26 00:55:00
8:15 PM,72.0,64.4,77,29.92,10.0,South,6.9,-,N/A,,Scattered Clouds,190,2013-07-26 01:15:00
8:35 PM,71.1,64.0,78,29.92,10.0,South,8.1,-,N/A,,Scattered Clouds,180,2013-07-26 01:35:00
8:55 PM,70.5,64.0,80,29.93,10.0,South,9.2,-,N/A,,Clear,190,2013-07-26 01:55:00
9:15 PM,70.0,63.9,81,29.93,10.0,South,8.1,-,N/A,,Scattered Clouds,190,2013-07-26 02:15:00
9:35 PM,69.8,63.1,79,29.94,10.0,South,8.1,-,N/A,Thunderstorm,Scattered Clouds,190,2013-07-26 02:35:00
9:55 PM,69.8,62.1,76,29.95,10.0,South,8.1,-,N/A,,Clear,190,2013-07-26 02:55:00
10:15 PM,69.3,61.0,75,29.95,10.0,South,8.1,-,N/A,,Scattered Clouds,190,2013-07-26 03:15:00
10:35 PM,68.9,61.3,77,29.95,10.0,South,4.6,-,N/A,,Clear,190,2013-07-26 03:35:00
10:55 PM,68.4,61.3,78,29.95,10.0,SSW,3.5,-,N/A,,Scattered Clouds,200,2013-07-26 03:55:00
11:15 PM,68.5,61.2,77,29.94,10.0,Calm,Calm,-,N/A,,Overcast,0,2013-07-26 04:15:00
11:35 PM,68.5,61.7,79,29.93,10.0,SE,3.5,-,N/A,Thunderstorm,Overcast,130,2013-07-26 04:35:00
11:55 PM,67.3,61.9,83,29.92,10.0,SSE,4.6,-,N/A,,Overcast,150,2013-07-26 04:55:00